{"data":{"norad_id":54035,"epoch":"2026-05-25T05:02:58.667136Z","epoch_age_seconds":50653,"freshness":"FRESH","line1":"1 54035U 22132A   26145.21040124  .00007577  00000+0  33339-3 0  9998","line2":"2 54035  97.3804 150.0081 0022640  90.5338 269.8492 15.21912573200926","mean_motion":15.21912573,"eccentricity":0.002264,"inclination_deg":97.3804,"raan_deg":150.0081,"arg_perigee_deg":90.5338,"mean_anomaly_deg":269.8492,"bstar":0.00033339,"rev_number":20092,"period_min":94.617787220291,"perigee_km":484.499787181,"apogee_km":515.64431777062,"semimajor_km":6878.2090524758,"source":"CELESTRAK","updated_at":"2026-05-25T13:37:58.542008Z"}}